Weather History for Kirksville, MO

Change the Weather History Date:

Monday, November 26, 2012

  Actual Average Record
Temperature  
Mean Temperature 26 °F 36 °F  
Max Temperature 35 °F 45 °F 73 °F (1990)
Min Temperature 16 °F 26 °F 2 °F (1977)
Degree Days  
Heating Degree Days 39 30  
Month to date heating degree days 576 613  
Since 1 July heating degree days 1155 1102  
Cooling Degree Days 0 0  
Month to date cooling degree days 2 0  
Year to date cooling degree days 1321 939  
Moisture  
Dew Point 19 °F    
Average Humidity 72    
Maximum Humidity 88    
Minimum Humidity 56    
Precipitation  
Precipitation T in 0.09 in 0.92 in (1940)
Month to date precipitation 1.73 2.39  
Year to date precipitation 26.42 37.23  
Sea Level Pressure  
Sea Level Pressure 30.33 in    
Wind  
Wind Speed 11 mph (North)    
Max Wind Speed 18 mph    
Max Gust Speed 24 mph    
Visibility 10 miles    
Events Snow    
T = Trace of Precipitation, MM = Missing Value Source: NWS Daily Summary

Daily Weather History Graph

Daily Weather History Graph

Search for Another Location

Airport:

Trip Planner

Search our weather history database for the weather conditions in past years. The results will help you decide how hot, cold, wet, or windy it might be!

Date:

Astronomy

Nov. 26, 2012 Rise Set
Actual Time 7:08 AM CST 4:46 PM CST
Civil Twilight 6:38 AM CST 5:16 PM CST
Nautical Twilight 6:05 AM CST 5:49 PM CST
Astronomical Twilight 5:32 AM CST 6:22 PM CST
Moon 3:39 PM CST (11/26) 5:19 AM CST (11/26)
Length of Visible Light 10h 37m
Length of Day
9h 38m
Waxing Gibbous, 97% of the Moon is Illuminated
Nov 26
Waxing Gibbous
Nov 28
Full
Dec 6
Last Quarter
Dec 13
New
Dec 19
First Quarter

Hourly Weather History & Observations

Time (CST) Temp. Windchill Dew Point Humidity Pressure Visibility Wind Dir Wind Speed Gust Speed Precip Events Conditions
12:55 AM 24.1 °F 17.0 °F 21.0 °F 88% 30.14 in 10.0 mi NNE 5.8 mph - N/A   Clear
1:55 AM 28.9 °F 20.4 °F 24.1 °F 82% 30.15 in 10.0 mi NNE 9.2 mph - N/A   Clear
2:55 AM 28.9 °F 19.8 °F 24.1 °F 82% 30.17 in 10.0 mi NNE 10.4 mph - N/A   Clear
3:55 AM 30.0 °F 20.5 °F 25.0 °F 82% 30.17 in 10.0 mi NNE 11.5 mph - N/A   Clear
4:55 AM 30.0 °F 20.5 °F 24.1 °F 79% 30.20 in 10.0 mi NNE 11.5 mph - N/A   Clear
5:55 AM 30.0 °F 19.1 °F 24.1 °F 79% 30.21 in 10.0 mi NNE 15.0 mph - N/A   Clear
6:55 AM 30.0 °F 19.5 °F 23.0 °F 75% 30.24 in 10.0 mi NE 13.8 mph - N/A   Clear
7:55 AM 30.9 °F 20.7 °F 21.9 °F 69% 30.27 in 10.0 mi NNE 13.8 mph - N/A   Clear
8:55 AM 33.1 °F 23.4 °F 21.9 °F 64% 30.29 in 10.0 mi NE 13.8 mph - N/A   Clear
9:55 AM 35.1 °F 25.5 °F 21.9 °F 59% 30.31 in 10.0 mi NNE 15.0 mph - N/A   Partly Cloudy
10:55 AM 33.1 °F 23.0 °F 21.9 °F 64% 30.35 in 10.0 mi NNE 15.0 mph - N/A   Overcast
11:55 AM 33.1 °F 23.9 °F 23.0 °F 66% 30.36 in 9.0 mi North 12.7 mph - N/A   Overcast
12:55 PM 33.1 °F 23.0 °F 19.9 °F 59% 30.37 in 10.0 mi North 15.0 mph - N/A   Overcast
1:55 PM 32.0 °F 22.1 °F 19.0 °F 59% 30.37 in 10.0 mi North 13.8 mph - N/A   Overcast
2:55 PM 30.0 °F 20.0 °F 19.9 °F 66% 30.38 in 7.0 mi North 12.7 mph - 0.00 in Snow Light Snow
3:55 PM 30.0 °F 20.5 °F 18.0 °F 61% 30.39 in 10.0 mi NNW 11.5 mph - N/A   Overcast
4:55 PM 30.9 °F 22.8 °F 18.0 °F 59% 30.39 in 10.0 mi North 9.2 mph - N/A   Overcast
5:55 PM 28.9 °F 21.1 °F 18.0 °F 64% 30.41 in 10.0 mi North 8.1 mph - N/A   Scattered Clouds
6:55 PM 25.0 °F 16.3 °F 16.0 °F 69% 30.43 in 10.0 mi North 8.1 mph - N/A   Clear
7:55 PM 23.0 °F 15.8 °F 15.1 °F 72% 30.45 in 10.0 mi NNW 5.8 mph - N/A   Clear
8:55 PM 21.0 °F 12.4 °F 12.9 °F 71% 30.46 in 10.0 mi North 6.9 mph - N/A   Clear
9:55 PM 19.9 °F 11.1 °F 10.9 °F 68% 30.47 in 10.0 mi North 6.9 mph - N/A   Clear
10:55 PM 18.0 °F 11.1 °F 10.0 °F 71% 30.48 in 10.0 mi North 4.6 mph - N/A   Clear
11:55 PM 17.1 °F 8.7 °F 9.0 °F 71% 30.49 in 10.0 mi North 5.8 mph - N/A   Clear